Location: Winthrop
(48.4780°N, 120.1850°W)
Time: 05:47:59
(UTC-07:00)

S-56A Canister/Altair - Pass Details

Date: 01 June 2023
Orbit: 636 x 2487 km, 38.9° (Epoch: 04 October)

Event Time Altitude Azimuth Distance (km) Brightness Sun altitude
Rises 21:29:35 0° 216° (SW) 5,444 11.8 -5.4°
Reaches altitude 10° 21:33:13 10° 209° (SSW) 4,659 11.4 -5.8°
Maximum altitude 21:45:12 38° 148° (SSE) 3,337 10.3 -7.2°
Drops below altitude 10° 21:58:20 10° 88° (E) 5,117 11.3 -8.7°
Sets 22:02:32 0° 81° (E) 6,020 11.8 -9.1°
